STARLINK-1714, 46562

Orbit data source: Space-Track

STARLINK-1714, 46562 is a payload satellite owned by SpaceX/Seattle (US) in LEO that was launched on Tue, 06 Oct 2020 UTC via an FALCON 9 launch vehicle from the Air Force Eastern Test Range (AFETR). Payload-class satellites include a variety of spacecraft equipped with specific instruments for various scientific and technological missions. These include communications satellites like Starlink; space stations such as the ISS; scientific satellites like the Hubble; Earth observation satellites from companies like Planet Labs, Umbra, and HawkEye 360; GPS; miniature CubeSats for education and research; and military/defense satellites.

Loading next visibility...
Identifier
46562, 2020-070AG
Orbit
LEO
Last TLE update
15 hours ago
Origin
Manufacturer
SpaceX/Seattle
Mission
Operational Commercial Communications
Bus & Motor
STARLINK, Unknown motor
Mass
260 kg wet, ~248 kg dry
Launch date (UTC)
2020-10-06 (5 years ago)
Launch vehicle
FALCON 9
Launch site
Air Force Eastern Test Range (AFETR)
Object type
Payload
Rocket body
Debris
Shape & HBR
Box + 1 Pan, 8.86 m
Radar Cross Section
13.562 m², Large (>1 m²)

Expand to show TLE details & history

TLE from 15 hours ago
0 STARLINK-1714
1 46562U 20070AG  25188.66463165  .00020302  00000-0  10908-2 0  9990
2 46562  53.0561 176.4423 0001984  94.9566 265.1653 15.14898166262853
Epoch: 2025-07-07T15:57Z
TLE epoch observation values (Epoch: 2025-07-07T15:57:04.174Z)
Latitude
-0.00005°
Longitude
11.30416°
Altitude
522.286 km
Speed
7.603 km/s
True Right ascension
11h 45m 46s
True Declination
0° 00' 00"
Sunlit
Object was in daylight at epoch
Visualization orbit readout
Latitude
-49.65015°
Longitude
-109.9244°
Altitude
539.555 km
Speed
7.592 km/s
Apparent Right ascension
05h 37m 47s
Apparent Declination
-48° 19' 26"
Sunlit
Object is in daylight
Visualization observer readout
Local Sidereal Time
19:24:05
Azimuth
122.745° SE
Elevation
-69.289°
Doppler factor
1
Orbital elements
Apogee altitude
522.928 km
Perigee altitude
520.19 km
Semi-major axis
6,899.696 km
Eccentricity
0.0002
Inclination
53.0561°
RAAN
176.4423°
Arg. of periapsis
94.9566°
True anomaly
Unknown
Mean anomaly
265.1653°
Eccentric anomaly
Unknown
Mean motion
3.78703 °/min
Orbital period
95.06 mins
BSTAR
0.0010908
Loading maneuver chart data...
Loading SW <> Apogee altitude chart data...
Loading historical data...
Loading historical data...
Loading historical data...
Loading historical data...
Loading historical data...
Loading historical data...
Loading historical data...

STARLINK-1714 Visibility forecast

Observer location: undefined°, undefined°

Span
Click to sort rows by Start time (UTC) header in descending order
Start Az.
Max El. time (UTC)
Max El. Az.
Max El.
End time (UTC)
End Az.
7 mins2025-07-08 08:15:33.517Z319.589° NNW2025-07-08 08:19:33.517Z56.452° ENE35.899°2025-07-08 08:22:33.517Z108.848° ESE
4 mins2025-07-08 09:56:33.517Z258.927° W2025-07-08 09:57:33.517Z237.791° WSW20.579°2025-07-08 10:00:33.517Z182.726° SSW
6 mins2025-07-09 01:22:33.517Z210.554° SW2025-07-09 01:25:33.517Z117.883° SE39.61°2025-07-09 01:28:33.517Z59.38° ENE
5 mins2025-07-09 03:02:33.517Z292.118° WNW2025-07-09 03:04:33.517Z336.035° NNW23.224°2025-07-09 03:07:33.517Z29.359° NE
|